Regional Weather Roundup
Issued by NWS

Home | Current Version | Previous Version | Graphics & Text | Print | Product List | Glossary On
Versions: 1 2 3 4 5 6 7 8 9 10 11 12 13 14 15 16 17 18 19 20 21 22 23 24 25 26 27 28 29 30 31 32 33 34 35 36 37 38 39 40 41 42 43 44 45 46 47 48 49 50
000
ASUS43 KLOT 300410
RWRIL

ILLINOIS REGIONAL WEATHER ROUNDUP
NATIONAL WEATHER SERVICE CHICAGO/ROMEOVILLE IL
1100 PM CDT TUE JUL 29 2014

NOTE: "FAIR" INDICATES FEW OR NO CLOUDS BELOW 12,000 FEET WITH NO
SIGNIFICANT WEATHER AND/OR OBSTRUCTIONS TO VISIBILITY.

* THESE STATIONS ARE NOT UNDER NWS QUALITY CONTROL. THEY ALSO MAY NOT
  REPORT WEATHER SUCH AS PRECIPITATION OR FOG.

ILZ001-002-007-009-015-016-024-300500-
NORTHWEST ILLINOIS

CITY           SKY/WX    TMP DP  RH WIND       PRES   REMARKS
MOLINE         CLEAR     63  57  81 W5        30.05R
STERLING*      PTCLDY    64  55  72 CALM      30.05S
SAVANNA*       MOCLDY    66  56  71 NW3       30.05R
$$

ILZ003-004-008-010-011-017-018-300500-
NORTH CENTRAL ILLINOIS

CITY           SKY/WX    TMP DP  RH WIND       PRES   REMARKS
ROCKFORD       PTCLDY    67  52  58 NE9       30.06R
FREEPORT*      LGT RAIN  61  57  87 W7        30.07R
ROCHELLE*      CLOUDY    65  56  74 CALM      30.04S
DE KALB*       PTCLDY    61  56  82 N6        30.05R
PERU*          PTCLDY    64  58  81 W7        30.04S
$$

ILZ005-006-012>014-019>023-300500-
NORTHEAST ILLINOIS

CITY           SKY/WX    TMP DP  RH WIND       PRES   REMARKS
CHICAGO-OHARE  CLOUDY    63  56  78 N10       30.02F
CHICAGO-MIDWAY CLOUDY    69  55  60 N15G25    30.03R
AURORA         PTCLDY    64  58  80 NW6       30.04R
LANSING*       CLEAR     59  55  89 CALM      30.01S
JOLIET*        PTCLDY    66  58  73 W5        30.03R
WAUKEGAN       MOCLDY    60  57  89 VRB3      30.01F
DUPAGE AIRPORT PTCLDY    62  56  80 N7        30.03R
KANKAKEE*      PTCLDY    61  58  91 W3        30.03S
WHEELING       CLOUDY    63  59  87 N6        30.03F
MORRIS*        MOCLDY    65  61  87 W5        30.02F
ROMEOVILLE*    MOCLDY    64  60  90 N9        30.04R
NORTHERLY ISL    N/A     65  56  72 NW18        N/A
$$

LMZ740>746-300500-
SOUTHERN LAKE MICHIGAN

STATION/POSITION SKY/WX   TEMP    WIND        PRES    VSBY  WAVE
                          AIR SEA DIR/SP/G                  HT/PER
                          (F)     (DEG/KT/KT) (MB)    (MI)  (FT/S)
SOUTHERN BUOY              61 61  270/ 12/ 16 1015.8F         1
WAUKEGAN HARBOR            62     310/  5/  6   N/A
HARRISON CRIB              65     340/ 26/ 30   N/A
BURNHAM HARBOR             64     340/ 14/ 23   N/A
CALUMET HARBOR             68     300/  6/ 11 1015.8R
MICHIGAN CITY              66     180/  7/  9   N/A
MICHIGAN CITY 6N           68 69  210/  8/ 10   N/A           1/ 2
ST. JOSEPH                 64 68  290/ 14/ 19   N/A           1/ 2
$$

ILZ025>027-034>036-040-047-049-050-058-095>099-300500-
WEST-CENTRAL ILLINOIS

CITY           SKY/WX    TMP DP  RH WIND       PRES   REMARKS
QUINCY         CLEAR     63  57  81 SW3       30.09R
GALESBURG*     CLEAR     63  58  84 W5        30.07S
MACOMB*        CLEAR     58  57  96 W5        30.10R
JACKSONVILLE*  CLEAR     64  60  88 SW3       30.09S
PITTSFIELD*    CLEAR     62  58  88 CALM      30.10R
$$

ILZ028>032-037-038-041>044-048-051>054-059>061-300500-
CENTRAL ILLINOIS

CITY           SKY/WX    TMP DP  RH WIND       PRES   REMARKS
PONTIAC        CLEAR     64  61  88 SW5       30.04S
DECATUR        CLEAR     67  58  72 W5        30.07S
PEORIA         CLEAR     66  58  75 W3        30.06S
LACON*         CLEAR     62  57  83 CALM      30.04R
LINCOLN*       CLEAR     66  59  78 CALM      30.04S
SPRINGFIELD    CLEAR     63  59  87 SW5       30.08R
TAYLORVILLE    CLEAR     57  55  94 CALM      30.08S
$$

ILZ033-039-045-046-055>057-062-063-300500-
EAST-CENTRAL ILLINOIS

CITY           SKY/WX    TMP DP  RH WIND       PRES   REMARKS
CHAMPAIGN      CLEAR     61  58  90 SW7       30.06S
DANVILLE*      CLEAR     60  58  96 CALM      30.03S
RANTOUL*       CLEAR     64  58  81 W5        30.06S
MATTOON        CLEAR     66  56  70 SW6       30.07R
PARIS*         CLEAR     59  57  92 CALM      30.07S
$$

ILZ079-100>102-300500-
SOUTHWEST ILLINOIS

CITY           SKY/WX    TMP DP  RH WIND       PRES   REMARKS
ALTON          CLEAR     61  61 100 CALM      30.09S
BELLEVILLE     CLEAR     63  60  92 CALM      30.08R
CAHOKIA*       CLEAR     61  57  87 S3        30.09R
SPARTA*        CLEAR     63  55  77 CALM      30.10R
$$

ILZ064>066-069>071-074>076-080>082-084>086-088>090-092>094-300500-
SOUTH-CENTRAL ILLINOIS

CITY           SKY/WX    TMP DP  RH WIND       PRES   REMARKS
CARBONDALE     CLEAR     61  58  90 CALM      30.09R
CAIRO*         CLEAR     63  58  86 CALM      30.10R
EFFINGHAM*     CLEAR     59  55  85 CALM      30.08S
MARION         CLEAR     61  57  88 CALM      30.10R
MT. VERNON     CLEAR     61  55  82 CALM      30.10R
CENTRALIA*     CLEAR     59  56  91 CALM      30.09R
SALEM*         CLEAR    N/A N/A N/A CALM      30.09S
METROPOLIS*    CLEAR     58  54  86 CALM      30.09R
$$

ILZ067-068-072-073-078-083-087-091-300500-
SOUTHEAST ILLINOIS

CITY           SKY/WX    TMP DP  RH WIND       PRES   REMARKS
LAWRENCEVILLE  CLEAR     62  58  86 CALM      30.08R
FLORA*         CLEAR     60  56  89 CALM      30.09R
FAIRFIELD*     CLEAR     61  59  94 CALM      30.08S
HARRISBURG*    CLEAR     60  60  98 CALM      30.10R
ROBINSON*      CLEAR     59  57  96 CALM      30.08S
CARMI*         CLEAR     61  61 100 CALM      30.08R
$$

ABBREVIATIONS USED IN REMARKS
   TC - TEMPERATURE IN CELSIUS
  WCI - WIND CHILL INDEX
   HX - HEAT INDEX
  VSB - VISIBILITY
$$



USA.gov is the U.S. government's official web portal to all federal, state and local government web resources and services.